Weather History for KTCM - October, 2014

Change the Weather History Date:

Tuesday, October 21, 2014

  Actual Average Record
Temperature  
Mean Temperature 56 °F -  
Max Temperature 63 °F 56 °F - (-1)
Min Temperature 50 °F 38 °F - (-1)
Degree Days  
Heating Degree Days 8    
Growing Degree Days 6 (Base 50)    
Moisture  
Dew Point 51 °F    
Average Humidity 82    
Maximum Humidity 100    
Minimum Humidity 61    
Precipitation  
Precipitation 0.04 in - - ()
Sea Level Pressure  
Sea Level Pressure 29.87 in    
Wind  
Wind Speed 9 mph (South)    
Max Wind Speed 18 mph    
Max Gust Speed 31 mph    
Visibility 10 miles    
Events Rain    
Averages and records for this station are not official NWS values.
T = Trace of Precipitation, MM = Missing Value Source: NWS Daily Summary

Daily Weather History Graph

Daily Weather History Graph

Search for Another Location

Airport or City:

Trip Planner

Search our weather history database for the weather conditions in past years. The results will help you decide how hot, cold, wet, or windy it might be!

Date:

Astronomy

Oct. 21, 2014 Rise Set
Actual Time 7:36 AM PDT 6:11 PM PDT
Civil Twilight 7:05 AM PDT 6:42 PM PDT
Nautical Twilight 6:30 AM PDT 7:17 PM PDT
Astronomical Twilight 5:54 AM PDT 7:53 PM PDT
Moon 5:18 AM PDT (10/21) 5:14 PM PDT (10/21)
Length of Visible Light 11h 36m
Length of Day
10h 34m
Waning Crescent, 4% of the Moon is Illuminated
Oct 21
Waning Crescent
Oct 23
New
Oct 30
First Quarter
Nov 6
Full
Nov 14
Last Quarter

Hourly Weather History & Observations

Time (PDT) Temp. Dew Point Humidity Pressure Visibility Wind Dir Wind Speed Gust Speed Precip Events Conditions
12:58 AM 50.7 °F 50.5 °F 99% 29.83 in 10.0 mi SSE 4.6 mph - N/A   Overcast
1:58 AM 51.8 °F 51.4 °F 99% 29.83 in 10.0 mi SSE 5.8 mph - N/A   Overcast
2:58 AM 52.9 °F 51.6 °F 95% 29.84 in 10.0 mi SSW 3.5 mph - N/A   Overcast
3:08 AM 53.6 °F 51.8 °F 94% 29.83 in 10.0 mi SSW 3.5 mph - N/A Rain Light Rain
3:28 AM 51.8 °F 51.8 °F 100% 29.83 in 10.0 mi South 5.8 mph - N/A   Overcast
3:34 AM 51.8 °F 51.8 °F 100% 29.83 in 10.0 mi South 5.8 mph - N/A Rain Light Rain
3:58 AM 53.2 °F 52.7 °F 98% 29.85 in 10.0 mi South 8.1 mph - 0.01 in   Light Drizzle
4:17 AM 53.6 °F 51.8 °F 94% 29.84 in 10.0 mi South 6.9 mph - N/A   Overcast
4:38 AM 53.6 °F 51.8 °F 94% 29.84 in 10.0 mi South 8.1 mph - N/A Rain Light Rain
4:49 AM 53.6 °F 51.8 °F 94% 29.85 in 10.0 mi South 5.8 mph - N/A   Overcast
4:58 AM 52.7 °F 52.3 °F 99% 29.84 in 10.0 mi SSE 4.6 mph - 0.00 in   Mostly Cloudy
5:58 AM 52.2 °F 51.8 °F 99% 29.86 in 10.0 mi South 8.1 mph - N/A   Mostly Cloudy
6:58 AM 53.4 °F 52.0 °F 95% 29.89 in 9.0 mi South 11.5 mph - N/A   Overcast
7:00 AM 53.6 °F 51.8 °F 94% 29.88 in 7.0 mi South 12.7 mph - N/A Rain Light Rain
7:15 AM 53.6 °F 53.6 °F 100% 29.88 in 10.0 mi South 9.2 mph - N/A   Overcast
7:58 AM 51.4 °F 51.1 °F 99% 29.91 in 10.0 mi South 9.2 mph - 0.03 in   Partly Cloudy
8:58 AM 54.3 °F 52.5 °F 94% 29.91 in 10.0 mi South 10.4 mph - N/A   Scattered Clouds
9:58 AM 55.6 °F 51.8 °F 87% 29.94 in 10.0 mi South 8.1 mph - N/A   Scattered Clouds
10:58 AM 57.9 °F 53.1 °F 84% 29.94 in 10.0 mi South 12.7 mph - N/A   Mostly Cloudy
11:58 AM 61.7 °F 51.3 °F 69% 29.94 in 10.0 mi South 16.1 mph 23.0 mph N/A   Mostly Cloudy
12:37 PM 60.8 °F 50.0 °F 68% 29.94 in 10.0 mi South 15.0 mph 21.9 mph N/A Rain Light Rain
12:58 PM 58.8 °F 50.4 °F 73% 29.96 in 10.0 mi SSW 15.0 mph - 0.00 in Rain Light Rain
1:11 PM 59.0 °F 50.0 °F 72% 29.93 in 10.0 mi South 11.5 mph - N/A   Overcast
1:58 PM 61.0 °F 50.5 °F 68% 29.94 in 10.0 mi South 12.7 mph 18.4 mph 0.00 in   Mostly Cloudy
2:58 PM 62.4 °F 49.5 °F 63% 29.92 in 10.0 mi SSW 16.1 mph 27.6 mph N/A   Mostly Cloudy
3:58 PM 63.3 °F 49.8 °F 61% 29.91 in 10.0 mi South 18.4 mph 28.8 mph N/A   Mostly Cloudy
4:58 PM 61.2 °F 49.1 °F 65% 29.90 in 10.0 mi South 16.1 mph - N/A   Overcast
5:58 PM 60.1 °F 48.9 °F 67% 29.89 in 10.0 mi South 9.2 mph - N/A   Overcast
6:58 PM 59.0 °F 48.6 °F 68% 29.87 in 10.0 mi SSE 6.9 mph - N/A   Overcast
7:58 PM 58.5 °F 47.8 °F 68% 29.86 in 10.0 mi SSE 16.1 mph - N/A   Mostly Cloudy
8:58 PM 58.8 °F 47.8 °F 67% 29.82 in 10.0 mi South 11.5 mph - N/A   Overcast
9:58 PM 58.8 °F 47.7 °F 66% 29.80 in 10.0 mi South 13.8 mph - N/A   Mostly Cloudy
10:58 PM 59.9 °F 46.9 °F 62% 29.78 in 10.0 mi South 12.7 mph - N/A   Scattered Clouds
11:30 PM 59.0 °F 48.2 °F 67% 29.76 in 10.0 mi SSE 16.1 mph 21.9 mph N/A Rain Light Rain
11:45 PM 59.0 °F 48.2 °F 67% 29.75 in 10.0 mi South 16.1 mph 21.9 mph N/A   Partly Cloudy
11:58 PM 59.2 °F 47.3 °F 65% 29.76 in 10.0 mi SSE 18.4 mph 31.1 mph 0.00 in   Scattered Clouds